Smyrna, TN

10:15 AM CDT on October 18, 2017 (GMT -0500)
Smyrna

Weather History for KMQY - July, 2013

Change the Weather History Date:

Monday, July 15, 2013

  Actual Average Record
Temperature  
Mean Temperature 82 °F -  
Max Temperature 91 °F 85 °F 99 °F (2010)
Min Temperature 72 °F 69 °F 61 °F (2008)
Cooling Degree Days 16    
Growing Degree Days 32 (Base 50)    
Moisture  
Dew Point 70 °F    
Average Humidity 70    
Maximum Humidity 93    
Minimum Humidity 47    
Precipitation  
Precipitation 0.00 in - - ()
Sea Level Pressure  
Sea Level Pressure 30.25 in    
Wind  
Wind Speed 6 mph (SE)    
Max Wind Speed 13 mph    
Max Gust Speed 18 mph    
Visibility 10 miles    
Events      
Averages and records for this station are not official NWS values.
T = Trace of Precipitation, MM = Missing Value Source: NWS Daily Summary

Daily Weather History Graph

Daily Weather History Graph

Search for Another Location

Airport or City:

Trip Planner

Search our weather history database for the weather conditions in past years. The results will help you decide how hot, cold, wet, or windy it might be!

Date:

Astronomy

Jul. 15, 2013 Rise Set
Actual Time 5:41 AM CDT 8:02 PM CDT
Civil Twilight 5:11 AM CDT 8:32 PM CDT
Nautical Twilight 4:35 AM CDT 9:08 PM CDT
Astronomical Twilight 3:55 AM CDT 9:47 PM CDT
Moon 12:44 PM CDT (7/15) No Moon Set
Length of Visible Light 15h 20m
Length of Day
14h 21m
Waxing Crescent, 45% of the Moon is Illuminated
Jul 15
Waxing Crescent
Jul 15
First Quarter
Jul 22
Full
Jul 29
Last Quarter
Aug 6
New

Hourly Weather History & Observations

Time (CDT) Temp. Heat Index Dew Point Humidity Pressure Visibility Wind Dir Wind Speed Gust Speed Precip Events Conditions
12:56 AM 75.9 °F - 70.9 °F 84% 30.21 in 10.0 mi East 3.5 mph - N/A   Clear
1:56 AM 72.9 °F - 70.9 °F 93% 30.21 in 10.0 mi SE 3.5 mph - N/A   Partly Cloudy
2:56 AM 73.9 °F - 70.9 °F 90% 30.21 in 10.0 mi SE 4.6 mph - N/A   Clear
3:56 AM 73.9 °F - 70.0 °F 87% 30.22 in 10.0 mi East 3.5 mph - N/A   Clear
4:56 AM 73.9 °F - 70.0 °F 87% 30.22 in 10.0 mi ESE 5.8 mph - N/A   Clear
5:56 AM 72.0 °F - 68.9 °F 90% 30.24 in 10.0 mi SE 4.6 mph - N/A   Partly Cloudy
6:56 AM 75.9 °F - 68.9 °F 79% 30.27 in 10.0 mi ESE 5.8 mph - N/A   Clear
7:56 AM 79.0 °F - 70.9 °F 76% 30.28 in 10.0 mi SE 6.9 mph - N/A   Clear
8:56 AM 79.9 °F - 68.9 °F 69% 30.29 in 10.0 mi South 12.7 mph 18.4 mph N/A   Mostly Cloudy
9:56 AM 81.0 °F 84.4 °F 70.0 °F 69% 30.30 in 10.0 mi South 8.1 mph - 0.00 in   Mostly Cloudy
10:56 AM 84.9 °F 90.1 °F 70.9 °F 63% 30.31 in 10.0 mi SSE 10.4 mph - N/A   Scattered Clouds
11:56 AM 83.8 °F 87.5 °F 68.9 °F 61% 30.30 in 10.0 mi Variable 6.9 mph - N/A   Mostly Cloudy
12:56 PM 86.9 °F 92.5 °F 70.9 °F 59% 30.29 in 10.0 mi South 8.1 mph - 0.00 in   Mostly Cloudy
1:56 PM 86.9 °F 91.0 °F 68.9 °F 55% 30.27 in 10.0 mi SSE 9.2 mph - 0.00 in   Mostly Cloudy
2:56 PM 90.0 °F 94.5 °F 68.9 °F 50% 30.25 in 10.0 mi SSE 8.1 mph - 0.00 in   Scattered Clouds
3:56 PM 90.0 °F 95.9 °F 70.9 °F 53% 30.23 in 10.0 mi SE 6.9 mph - N/A   Scattered Clouds
4:56 PM 91.9 °F 96.9 °F 68.9 °F 47% 30.22 in 10.0 mi ENE 9.2 mph - N/A   Clear
5:56 PM 90.9 °F 95.3 °F 68.9 °F 48% 30.22 in 10.0 mi ESE 8.1 mph - N/A   Partly Cloudy
6:56 PM 88.9 °F 93.8 °F 70.0 °F 53% 30.23 in 10.0 mi East 6.9 mph - 0.00 in   Partly Cloudy
7:56 PM 86.0 °F 91.1 °F 70.9 °F 60% 30.24 in 10.0 mi East 4.6 mph - N/A   Clear
8:56 PM 81.9 °F 86.0 °F 70.9 °F 69% 30.26 in 10.0 mi ESE 3.5 mph - 0.00 in   Clear
9:56 PM 81.0 °F 84.7 °F 70.9 °F 71% 30.28 in 10.0 mi SSE 3.5 mph - N/A   Partly Cloudy
10:56 PM 77.9 °F - 70.9 °F 79% 30.28 in 10.0 mi Calm Calm - N/A   Clear
11:56 PM 74.8 °F - 70.9 °F 87% 30.29 in 10.0 mi South 3.5 mph - N/A   Partly Cloudy